Список аэропортов
Фактическая погода:

24 октября, 11:50
Температура: +17°C (+16.3*)
Ветер: юго-западный 5 м/с
Давление: *764 мм
разорв. обл.
300 м
облачно
1440 м
Время (МСК)Темп. СВетерВлажностьДавлениеОблачностьОсадки
09:00+15ЮЗ, 4 м/с96%1017 гПаоблачно
10:00+16ЮЗ, 5 м/с94%1017 гПаоблачно
11:00+16ЮЗ, 6 м/с95%1017 гПаоблачно
12:00+16ЮЗ, 7 м/с92%1017 гПаоблачно
13:00+17ЮЗ, 8 м/с90%1017 гПаоблачно
14:00+17ЮЗ, 8 м/с87%1017 гПаоблачно
15:00+17ЮЗ, 8 м/с89%1017 гПаоблачносл. дождь
16:00+17ЮЗ, 8 м/с88%1017 гПаоблачносл. дождь
17:00+17ЮЗ, 7 м/с88%1017 гПаоблачносл. дождь
18:00+17ЮЗ, 7 м/с88%1017 гПаоблачносл. дождь
19:00+17ЮЗ, 6 м/с89%1017 гПаоблачносл. дождь
20:00+17ЮЗ, 7 м/с89%1017 гПаоблачносл. дождь
21:00+16ЮЗ, 6 м/с91%1017 гПаоблачно
22:00+16ЮЗ, 6 м/с90%1017 гПаоблачно
23:00+16ЮЗ, 6 м/с88%1017 гПаоблачно
25 октября
00:00+16ЮЗ, 6 м/с85%1017 гПаоблачно
01:00+15ЮЗ, 6 м/с85%1016 гПаоблачно
02:00+15ЮЗ, 5 м/с89%1016 гПаоблачно
03:00+16ЮЗ, 8 м/с82%1015 гПаоблачно
04:00+16ЮЗ, 8 м/с74%1016 гПаоблачно
05:00+15ЮЗ, 8 м/с73%1015 гПаоблачно
06:00+15ЮЗ, 8 м/с76%1015 гПаоблачно
07:00+15ЮЗ, 7 м/с79%1015 гПаоблачно
08:00+15ЮЗ, 7 м/с81%1015 гПаоблачно
09:00+15З, 6 м/с81%1016 гПаоблачно
10:00+15ЮЗ, 4 м/с83%1017 гПамалооблачно
11:00+14ЮЗ, 4 м/с87%1018 гПамалооблачно
12:00+15З, 6 м/с78%1018 гПаоблачно
13:00+16З, 6 м/с66%1019 гПамалооблачно
14:00+17З, 5 м/с59%1019 гПаоблачно
15:00+17З, 5 м/с56%1019 гПас прояснениями
16:00+17З, 5 м/с54%1020 гПас прояснениями
17:00+17З, 5 м/с54%1020 гПас прояснениями
18:00+17З, 5 м/с56%1020 гПамалооблачно
19:00+16З, 4 м/с59%1021 гПас прояснениями
20:00+14ЮЗ, 3 м/с70%1021 гПаясно
21:00+13ЮЗ, 3 м/с80%1022 гПаясно
22:00+12ЮЗ, 2 м/с87%1022 гПамалооблачно
23:00+10З, 2 м/с92%1022 гПас прояснениями
26 октября
00:00+10ЮЗ, 2 м/с93%1023 гПаоблачно
01:00+9ЮЗ, 2 м/с97%1023 гПаоблачно
02:00+8ЮЗ, 1 м/с99%1023 гПаоблачно
03:00+8Ю, 1 м/с100%1023 гПаоблачно
04:00+7Ю, 1 м/с100%1024 гПаоблачно
05:00+8Ю, 1 м/с99%1024 гПаоблачно
06:00+8Ю, 1 м/с100%1024 гПаоблачно
07:00+8Ю, 1 м/с100%1024 гПаоблачно
08:00+8Ю, 1 м/с99%1024 гПаоблачно
09:00+8Штиль 100%1025 гПаоблачно